Location: Newark
(0.5300°S, 127.4800°E)
Time: 13:59:29
(UTC+00:00)

Vanguard 3 - Pass Details

Date: 20 September 2019
Orbit: 508 x 3262 km, 33.3° (Epoch: 18 October)

Event Time Altitude Azimuth Distance (km) Brightness Sun altitude
Rises 23:16:37 0° 282° (WNW) 5,331 10.8 28.3°
Reaches altitude 10° 23:20:54 10° 296° (WNW) 4,762 10.7 29.3°
Maximum altitude 23:31:29 23° 344° (NNW) 4,558 11.0 32.0°
Drops below altitude 10° 23:45:06 10° 29° (NNE) 6,148 12.1 35.4°
Sets 23:52:02 0° 42° (NE) 7,217 12.5 37.1°
